Location: Ebersheim
(48.3033°N, 7.4991°E)
Time: 10:34:38
(UTC+00:00)

SL-08 RB Rocket - Pass Details

Date: 27 February 2020
Orbit: 648 x 683 km, 97.8° (Epoch: 05 April)

Event Time Altitude Azimuth Distance (km) Brightness Sun altitude
Exits shadow 19:42:35 53° 214° (SW) 801 4.1 -25.9°
Maximum altitude 19:43:19 62° 259° (WSW) 733 4.0 -26.0°
Drops below altitude 10° 19:47:47 10° 340° (NNW) 2,063 6.7 -26.7°
Sets 19:50:01 0° 344° (NNW) 2,977 7.5 -27.1°
